Volver al catálogo

YUNHAI 2-1A

ActivoMeteoLEO
NORAD 43909·PAYLOAD·🇨🇳 China

Lanzado Dec 29, 2018 desde Jiuquan Satellite Launch Center

Loading…

Próximos Pases (próximas 24 horas)

TLE

ActualizadoSource: Space-Track

Época: Sep 14, 2026, 14:42 UTC

1 43909U 18112A   26257.61296167 -.00000161  00000-0  12878-6 0  9999
2 43909  50.0105  24.5912 0000425 164.0205 196.0724 14.29049227403871

Sigue YUNHAI 2-1A en tiempo real con AllMySat

Download on the App Store